Regional Weather Roundup
Issued by NWS

Home | Current Version | Previous Version | Text Only | Print | Product List | Glossary Off
Versions: 1 2 3 4 5 6 7 8 9 10 11 12 13 14 15 16 17 18 19 20 21 22 23 24 25 26 27 28 29 30 31 32 33 34 35 36 37 38 39 40 41 42 43 44 45 46 47 48 49 50

000
ASUS43 KTOP 051208
RWRKS

WEATHER ROUNDUP FOR KANSAS
NATIONAL WEATHER SERVICE GOODLAND KS
600 AM CST MON DEC 05 2016

NOTE:  "FAIR" INDICATES FEW OR NO CLOUDS BELOW 12,000 FEET WITH NO
SIGNIFICANT WEATHER AND/OR OBSTRUCTIONS TO VISIBILITY.

KSZ001>006-013>018-027>032-041>047-051300-
NORTHWEST KANSAS

CITY           SKY/WX    TMP DP  RH WIND       PRES   REMARKS
GOODLAND       CLOUDY    30  16  56 SW8       29.60S
6HR MIN TEMP:  28; 6HR MAX TEMP:  33;

HAYS           CLEAR     38  26  62 S23G29    29.68F WCI  27
HILL CITY      CLOUDY    40  25  55 SW13      29.67F WCI  32
6HR MIN TEMP:  36; 6HR MAX TEMP:  41;

RUSSELL        CLEAR     34  27  75 S22       29.71F WCI  22
6HR MIN TEMP:  33; 6HR MAX TEMP:  37;

$$

KSZ061>065-074>080-084>089-051300-
SOUTHWEST KANSAS

CITY           SKY/WX    TMP DP  RH WIND       PRES   REMARKS
DODGE CITY     CLEAR     32  26  78 S9        29.75F
6HR MIN TEMP:  32; 6HR MAX TEMP:  36;

ELKHART          N/A    N/A N/A N/A MISG        N/A
GARDEN CITY    CLOUDY    28  23  81 S9        29.68F
6HR MIN TEMP:  27; 6HR MAX TEMP:  35;

GREAT BEND     CLEAR     35  28  75 S15       29.78F WCI  25
LIBERAL        CLOUDY    30  21  69 S13       29.73F WCI  20
PRATT          CLEAR     32  28  86 S10       29.79F WCI  24
6HR MIN TEMP:  27; 6HR MAX TEMP:  33;

$$

KSZ066>073-081>083-090>101-051300-
SOUTHEAST KANSAS

CITY           SKY/WX    TMP DP  RH WIND       PRES   REMARKS
CHANUTE        CLEAR     35  33  92 S10       29.92F FOG     WCI  27
6HR MIN TEMP:  27; 6HR MAX TEMP:  35;

COFFEYVILLE    FOG       31  31 100 CALM      29.95F VSB 1/4
6HR MIN TEMP:  30; 6HR MAX TEMP:  34;

HUTCHINSON     CLEAR     33  29  85 S9        29.83F
6HR MIN TEMP:  27; 6HR MAX TEMP:  35;

MEDICINE LODGE   N/A     31  28  89 SE7       29.82F
NEWTON         CLEAR     33  32  96 S13       29.84F WCI  24
PARSONS        FOG       31  30  96 CALM      29.95F VSB 1/2
6HR MIN TEMP:  28; 6HR MAX TEMP:  35;

WICHITA INTL   CLEAR     31  29  92 S8        29.84F
6HR MIN TEMP:  30; 6HR MAX TEMP:  34;

WICHITA JABRA  CLEAR     33  31  92 S9        29.85F
6HR MIN TEMP:  32; 6HR MAX TEMP:  36;

WICHITA MCCONL CLEAR     33  30  88 S6        29.85F
WINFIELD       CLEAR     34  32  92 SE7       29.89F
6HR MIN TEMP:  32; 6HR MAX TEMP:  35;

$$

KSZ007>012-019>026-033>040-048>060-102>105-051300-
NORTHEAST KANSAS

CITY           SKY/WX    TMP DP  RH WIND       PRES   REMARKS
CONCORDIA      CLEAR     36  28  73 S14       29.77F WCI  27
6HR MIN TEMP:  35; 6HR MAX TEMP:  37;

EMPORIA        CLEAR     31  31 100 S8        29.88F
6HR MIN TEMP:  30; 6HR MAX TEMP:  34;

LAWRENCE       CLEAR     30  30 100 E7        29.92F
6HR MIN TEMP:  23; 6HR MAX TEMP:  31;

MANHATTAN      CLEAR     26  24  92 CALM      29.85F
6HR MIN TEMP:  25; 6HR MAX TEMP:  31;

MARYSVILLE     CLEAR     34  30  86 S7        29.81F
OLATHE IND     CLEAR     31  31 100 S10       29.92F WCI  22
6HR MIN TEMP:  26; 6HR MAX TEMP:  33;

OLATHE EXE     CLEAR     32  31  96 S7        29.92F
6HR MIN TEMP:  28; 6HR MAX TEMP:  33;

SALINA         CLEAR     35  29  78 S10       29.82F WCI  27
6HR MIN TEMP:  33; 6HR MAX TEMP:  35;

TOPEKA BILLARD CLEAR     35  32  88 S3        29.90F
6HR MIN TEMP:  29; 6HR MAX TEMP:  36;

TOPEKA FORBES  CLEAR     36  34  92 S10       29.89F WCI  28
6HR MIN TEMP:  28; 6HR MAX TEMP:  36;

$$




USA.gov is the U.S. government's official web portal to all federal, state and local government web resources and services.